Orbital Elements at Epoch 2459200.5 (2020-Dec-17.0) TDB
Reference: JPL 19 (heliocentric ecliptic J2000)
Element | Value | Uncertainty (1-sigma) | Units |
e | .1067555688966798 | 5.5115e-08 | |
a | 2.388966326794945 | 1.322e-08 | au |
q | 2.133930867502939 | 1.3197e-07 | au |
i | 4.808071937423698 | 5.7679e-06 | deg |
node | 109.0108102041685 | 6.5356e-05 | deg |
peri | 1.48017512821468 | 7.1272e-05 | deg |
M | 354.8603046085483 | 2.6535e-05 | deg |
tp | 2459219.755213989332 (2021-Jan-05.25521399) | 9.9402e-05 | TDB |
period | 1348.694136171726 3.69 | 1.1195e-05 3.065e-08 | d yr |
n | .2669248648339656 | 2.2157e-09 | deg/d |
Q | 2.644001786086951 | 1.4632e-08 | au |
|
| | Orbit Determination Parameters
Additional Information
|